Terminal Aerodrome Forecast
Issued by NWS Boise, ID

Home | Current Version | Previous Version | Text Only | Print | Product List | Glossary On
Versions: 1 2 3 4 5 6 7 8 9 10 11 12
000
FTUS45 KBOI 152321
TAFBOI
TAF
KBOI 152321Z 1600/1624 32022G28KT P6SM SCT100 BKN200
     FM160400 32006KT P6SM SCT200
     FM161600 31008KT P6SM OVC100=

USA.gov is the U.S. government's official web portal to all federal, state and local government web resources and services.